Time,TemperatureF,DewpointF,PressureIn,WindDirection,WindDirectionDegrees,WindSpeedMPH,WindSpeedGustMPH,Humidity,HourlyPrecipIn,Conditions,Clouds,dailyrainin,SoftwareType,DateUTC
2013-08-28 11:00:00,64.0,-99.9,-100.00,West,261,4.0,13.0,-999,-99.99,,,-99.99,,2013-08-28 17:00:00,
2013-08-28 11:44:00,64.0,-99.9,-100.00,West,261,4.0,13.0,-999,-99.99,,,-99.99,,2013-08-28 17:44:00,
2013-08-28 11:52:00,64.0,-99.9,-100.00,West,261,4.0,13.0,-999,-99.99,,,-99.99,,2013-08-28 17:52:00,
2013-08-28 12:00:00,66.0,-99.9,-100.00,WSW,246,4.0,21.0,-999,-99.99,,,-99.99,,2013-08-28 18:00:00,
2013-08-28 12:42:00,66.0,-99.9,-100.00,WSW,246,4.0,21.0,-999,-99.99,,,-99.99,,2013-08-28 18:42:00,
2013-08-28 12:53:00,66.0,-99.9,-100.00,WSW,246,4.0,21.0,-999,-99.99,,,-99.99,,2013-08-28 18:53:00,
2013-08-28 13:00:00,67.0,-99.9,-100.00,SSW,200,4.0,12.0,-999,-99.99,,,-99.99,,2013-08-28 19:00:00,
2013-08-28 13:42:00,67.0,-99.9,-100.00,SSW,200,4.0,12.0,-999,-99.99,,,-99.99,,2013-08-28 19:42:00,
2013-08-28 13:53:00,67.0,-99.9,-100.00,SSW,200,4.0,12.0,-999,-99.99,,,-99.99,,2013-08-28 19:53:00,
2013-08-28 14:00:00,69.0,-99.9,-100.00,SW,217,7.0,20.0,-999,-99.99,,,-99.99,,2013-08-28 20:00:00,
2013-08-28 14:43:00,69.0,-99.9,-100.00,SW,217,7.0,20.0,-999,-99.99,,,-99.99,,2013-08-28 20:43:00,
2013-08-28 14:52:00,69.0,-99.9,-100.00,SW,217,7.0,20.0,-999,-99.99,,,-99.99,,2013-08-28 20:52:00,
2013-08-28 15:00:00,69.0,-99.9,-100.00,WSW,240,6.0,19.0,-999,-99.99,,,-99.99,,2013-08-28 21:00:00,
2013-08-28 15:44:00,69.0,-99.9,-100.00,WSW,240,6.0,19.0,-999,-99.99,,,-99.99,,2013-08-28 21:44:00,
2013-08-28 15:58:00,69.0,-99.9,-100.00,WSW,240,6.0,19.0,-999,-99.99,,,-99.99,,2013-08-28 21:58:00,
2013-08-28 16:00:00,70.0,-99.9,-100.00,SW,224,5.0,16.0,-999,-99.99,,,-99.99,,2013-08-28 22:00:00,
2013-08-28 16:43:00,70.0,-99.9,-100.00,SW,224,5.0,16.0,-999,-99.99,,,-99.99,,2013-08-28 22:43:00,
2013-08-28 16:54:00,70.0,-99.9,-100.00,SW,224,5.0,16.0,-999,-99.99,,,-99.99,,2013-08-28 22:54:00,
2013-08-28 17:00:00,68.0,-99.9,-100.00,West,271,4.0,11.0,-999,-99.99,,,-99.99,,2013-08-28 23:00:00,
2013-08-28 17:42:00,68.0,-99.9,-100.00,West,271,4.0,11.0,-999,-99.99,,,-99.99,,2013-08-28 23:42:00,
2013-08-28 17:53:00,68.0,-99.9,-100.00,West,271,4.0,11.0,-999,-99.99,,,-99.99,,2013-08-28 23:53:00,
2013-08-28 18:00:00,68.0,-99.9,-100.00,South,186,3.0,12.0,-999,-99.99,,,-99.99,,2013-08-29 00:00:00,
2013-08-28 19:00:00,65.0,-99.9,-100.00,North,10,3.0,11.0,-999,-99.99,,,-99.99,,2013-08-29 01:00:00,
2013-08-28 19:42:00,65.0,-99.9,-100.00,North,10,3.0,11.0,-999,-99.99,,,-99.99,,2013-08-29 01:42:00,
2013-08-28 19:53:00,65.0,-99.9,-100.00,North,10,3.0,11.0,-999,-99.99,,,-99.99,,2013-08-29 01:53:00,
2013-08-28 20:00:00,62.0,-99.9,-100.00,WNW,297,3.0,11.0,-999,-99.99,,,-99.99,,2013-08-29 02:00:00,
2013-08-28 20:52:00,62.0,-99.9,-100.00,WNW,297,3.0,11.0,-999,-99.99,,,-99.99,,2013-08-29 02:52:00,
2013-08-28 21:00:00,62.0,-99.9,-100.00,SSW,202,5.0,10.0,-999,-99.99,,,-99.99,,2013-08-29 03:00:00,
2013-08-28 21:45:00,62.0,-99.9,-100.00,SSW,202,5.0,10.0,-999,-99.99,,,-99.99,,2013-08-29 03:45:00,
2013-08-28 21:57:00,62.0,-99.9,-100.00,SSW,202,5.0,10.0,-999,-99.99,,,-99.99,,2013-08-29 03:57:00,
2013-08-28 22:00:00,62.0,-99.9,-100.00,SSW,213,3.0,11.0,-999,-99.99,,,-99.99,,2013-08-29 04:00:00,
2013-08-28 22:46:00,62.0,-99.9,-100.00,SSW,213,3.0,11.0,-999,-99.99,,,-99.99,,2013-08-29 04:46:00,
2013-08-28 22:54:00,62.0,-99.9,-100.00,SSW,213,3.0,11.0,-999,-99.99,,,-99.99,,2013-08-29 04:54:00,
2013-08-28 23:00:00,61.0,-99.9,-100.00,ESE,116,2.0,8.0,-999,-99.99,,,-99.99,,2013-08-29 05:00:00,
2013-08-28 23:42:00,61.0,-99.9,-100.00,ESE,116,2.0,8.0,-999,-99.99,,,-99.99,,2013-08-29 05:42:00,
2013-08-28 23:52:00,61.0,-99.9,-100.00,ESE,116,2.0,8.0,-999,-99.99,,,-99.99,,2013-08-29 05:52:00,